W0SS-13 Weather Reports


Display with metric or nautical units.
time (UTC)temp
F
wind
direction
speed
MPH
gust
MPH
rain 1hr
in
rain 24hr
in
rain mn
in
humidity
%
barometer
mb
20260906180050 99 190 0.0 1.0 0.00 0.00 0.00 46 1015.9
20260906175549 99 136 1.0 1.0 0.00 0.00 0.00 47 1016.1
20260906175044 98 22 2.0 3.0 0.00 0.00 0.00 46 1016.0
20260906174543 97 62 2.0 2.0 0.00 0.00 0.00 48 1016.3
20260906174038 96 124 2.0 2.0 0.00 0.00 0.00 49 1016.3
20260906173532 96 130 4.0 4.0 0.00 0.00 0.00 49 1016.3
20260906173028 96 53 3.0 4.0 0.00 0.00 0.00 48 1016.5
20260906172523 96 112 4.0 6.0 0.00 0.00 0.00 49 1016.6
20260906172018 96 111 2.0 3.0 0.00 0.00 0.00 47 1016.7
20260906171513 96 81 2.0 2.0 0.00 0.00 0.00 50 1016.6
20260906171009 96 164 4.0 4.0 0.00 0.00 0.00 50 1016.7
20260906170505 95 137 0.0 0.0 0.00 0.00 0.00 51 1016.8
20260906170003 95 133 3.0 3.0 0.00 0.00 0.00 51 1017.0
20260906165500 94 75 3.0 4.0 0.00 0.00 0.00 52 1017.1
20260906164955 95 88 0.0 1.0 0.00 0.00 0.00 51 1016.9
20260906164454 94 128 2.0 3.0 0.00 0.00 0.00 53 1017.0
20260906163951 94 149 5.0 6.0 0.00 0.00 0.00 51 1016.9
20260906163446 95 125 3.0 3.0 0.00 0.00 0.00 52 1017.1
20260906162944 96 126 2.0 3.0 0.00 0.00 0.00 51 1017.0
20260906162443 94 153 5.0 6.0 0.00 0.00 0.00 52 1017.0
20260906161937 94 143 4.0 4.0 0.00 0.00 0.00 52 1017.1
20260906161432 93 129 4.0 4.0 0.00 0.00 0.00 54 1017.3
20260906160931 94 125 6.0 6.0 0.00 0.00 0.00 53 1017.2
20260906160425 94 121 6.0 7.0 0.00 0.00 0.00 53 1017.1
20260906155923 94 91 1.0 2.0 0.00 0.00 0.00 52 1017.0
20260906155416 95 101 1.0 2.0 0.00 0.00 0.00 53 1017.1
20260906154913 95 48 1.0 2.0 0.00 0.00 0.00 52 1016.7
20260906154407 96 142 4.0 6.0 0.00 0.00 0.00 51 1017.1
20260906153906 95 25 0.0 1.0 0.00 0.00 0.00 52 1017.0
20260906153405 95 52 1.0 2.0 0.00 0.00 0.00 52 1017.0
20260906152900 94 89 2.0 3.0 0.00 0.00 0.00 53 1016.6
20260906152355 94 22 2.0 2.0 0.00 0.00 0.00 54 1016.9
20260906151854 93 73 1.0 1.0 0.00 0.00 0.00 55 1016.7
20260906151350 93 96 0.0 0.0 0.00 0.00 0.00 55 1016.8
20260906150846 93 110 1.0 1.0 0.00 0.00 0.00 54 1016.6
20260906150341 92 62 2.0 2.0 0.00 0.00 0.00 56 1016.8
20260906145840 93 61 1.0 1.0 0.00 0.00 0.00 55 1016.7
20260906145339 92 76 1.0 2.0 0.00 0.00 0.00 56 1016.6
20260906144834 92 76 1.0 1.0 0.00 0.00 0.00 56 1016.8
20260906144329 92 63 1.0 2.0 0.00 0.00 0.00 57 1016.7
20260906143829 91 61 0.0 1.0 0.00 0.00 0.00 58 1016.8
20260906143325 91 21 1.0 2.0 0.00 0.00 0.00 58 1016.7
20260906142821 90 76 0.0 1.0 0.00 0.00 0.00 58 1016.8
20260906142315 90 92 0.0 0.0 0.00 0.00 0.00 60 1017.0
20260906141815 88 122 2.0 2.0 0.00 0.00 0.00 61 1016.7
20260906141310 87 25 1.0 2.0 0.00 0.00 0.00 63 1016.8
20260906140808 87 20 2.0 2.0 0.00 0.00 0.00 63 1016.8
20260906140303 86 50 2.0 2.0 0.00 0.00 0.00 64 1016.8
20260906135801 86 23 4.0 4.0 0.00 0.00 0.00 64 1016.6
20260906135256 86 86 1.0 1.0 0.00 0.00 0.00 65 1016.6
20260906134752 86 36 1.0 2.0 0.00 0.00 0.00 66 1016.6
20260906134247 85 21 2.0 2.0 0.00 0.00 0.00 67 1016.4
20260906133742 85 37 3.0 3.0 0.00 0.00 0.00 67 1016.4
20260906133238 85 61 1.0 1.0 0.00 0.00 0.00 68 1016.6
20260906132733 84 66 0.0 0.0 0.00 0.00 0.00 68 1016.3
20260906132228 84 62 1.0 1.0 0.00 0.00 0.00 68 1016.2
20260906131724 84 67 0.0 0.0 0.00 0.00 0.00 68 1016.3
20260906131219 84 66 0.0 0.0 0.00 0.00 0.00 68 1016.2
20260906130714 82 66 0.0 0.0 0.00 0.00 0.00 72 1016.1
20260906130209 81 75 0.0 1.0 0.00 0.00 0.00 73 1015.9
20260906125708 80 90 0.0 0.0 0.00 0.00 0.00 74 1016.1
20260906125206 79 72 0.0 0.0 0.00 0.00 0.00 75 1015.9
20260906124701 78 85 0.0 0.0 0.00 0.00 0.00 77 1016.0
20260906124156 77 85 0.0 0.0 0.00 0.00 0.00 78 1015.8
20260906123655 76 104 0.0 0.0 0.00 0.00 0.00 80 1015.8
20260906123151 76 105 0.0 0.0 0.00 0.00 0.00 80 1015.9
20260906122650 75 105 0.0 0.0 0.00 0.00 0.00 80 1015.6
20260906122146 75 105 0.0 0.0 0.00 0.00 0.00 80 1015.8
20260906121642 75 105 0.0 0.0 0.00 0.00 0.00 80 1015.6
20260906121138 75 105 0.0 0.0 0.00 0.00 0.00 80 1015.7
20260906120633 75 105 0.0 0.0 0.00 0.00 0.00 79 1015.6
20260906120130 76 105 0.0 0.0 0.00 0.00 0.00 79 1015.3
20260906115625 76 105 0.0 0.0 0.00 0.00 0.00 78 1015.6
20260906115121 76 105 0.0 0.0 0.00 0.00 0.00 78 1015.7
20260906114619 77 57 0.0 0.0 0.00 0.00 0.00 77 1015.5
20260906114114 76 83 0.0 0.0 0.00 0.00 0.00 78 1015.6
20260906113609 76 85 0.0 0.0 0.00 0.00 0.00 78 1015.5
20260906113104 76 85 0.0 0.0 0.00 0.00 0.00 79 1015.5
20260906112603 75 86 0.0 0.0 0.00 0.00 0.00 80 1015.5
20260906112100 75 86 0.0 0.0 0.00 0.00 0.00 80 1015.3
20260906111559 75 86 0.0 0.0 0.00 0.00 0.00 80 1015.5
20260906111055 75 86 0.0 0.0 0.00 0.00 0.00 80 1015.5
20260906110554 75 86 0.0 0.0 0.00 0.00 0.00 80 1015.4
20260906110054 75 86 0.0 0.0 0.00 0.00 0.00 80 1015.3
20260906105549 75 86 0.0 0.0 0.00 0.00 0.00 80 1015.3
20260906105045 75 86 0.0 0.0 0.00 0.00 0.00 80 1015.4
20260906104543 75 86 0.0 0.0 0.00 0.00 0.00 80 1015.3
20260906104038 75 86 0.0 0.0 0.00 0.00 0.00 80 1015.4
20260906103536 76 86 0.0 0.0 0.00 0.00 0.00 79 1015.4
20260906103032 76 86 0.0 0.0 0.00 0.00 0.00 79 1015.4
20260906102532 76 86 0.0 0.0 0.00 0.00 0.00 79 1015.3
20260906102027 76 86 0.0 0.0 0.00 0.00 0.00 78 1015.2
20260906101521 76 85 0.0 0.0 0.00 0.00 0.00 78 1015.2
20260906101016 76 86 0.0 0.0 0.00 0.00 0.00 78 1015.2
20260906100512 76 86 0.0 0.0 0.00 0.00 0.00 79 1015.2
20260906100006 76 86 0.0 0.0 0.00 0.00 0.00 78 1015.2
20260906095501 76 86 0.0 0.0 0.00 0.00 0.00 79 1015.2
20260906094956 76 86 0.0 0.0 0.00 0.00 0.00 79 1015.1
20260906094455 76 86 0.0 0.0 0.00 0.00 0.00 79 1015.2
20260906093952 76 86 0.0 0.0 0.00 0.00 0.00 79 1014.9
20260906093448 76 86 0.0 0.0 0.00 0.00 0.00 79 1015.1
20260906092947 76 86 0.0 0.0 0.00 0.00 0.00 79 1014.8
20260906092442 76 88 0.0 0.0 0.00 0.00 0.00 79 1015.2
20260906091937 77 88 0.0 0.0 0.00 0.00 0.00 79 1015.1
20260906091433 77 88 0.0 0.0 0.00 0.00 0.00 78 1014.9
20260906090929 77 88 0.0 0.0 0.00 0.00 0.00 78 1014.8
20260906090424 77 88 0.0 0.0 0.00 0.00 0.00 78 1014.7
20260906085918 77 88 0.0 0.0 0.00 0.00 0.00 78 1014.9
20260906085412 76 96 0.0 0.0 0.00 0.00 0.00 78 1014.7
20260906084912 76 96 0.0 0.0 0.00 0.00 0.00 79 1014.7
20260906084406 76 96 0.0 0.0 0.00 0.00 0.00 78 1014.6
20260906083900 77 96 0.0 0.0 0.00 0.00 0.00 78 1014.9
20260906083355 76 96 0.0 0.0 0.00 0.00 0.00 78 1014.4
20260906082855 76 96 0.0 0.0 0.00 0.00 0.00 78 1014.9
20260906082350 76 96 0.0 0.0 0.00 0.00 0.00 78 1014.6
20260906081847 77 96 0.0 0.0 0.00 0.00 0.00 77 1014.5
20260906081347 77 96 0.0 0.0 0.00 0.00 0.00 77 1014.6
20260906080843 77 96 0.0 0.0 0.00 0.00 0.00 76 1014.7
20260906080339 77 96 0.0 0.0 0.00 0.00 0.00 76 1014.8
20260906075838 77 96 0.0 0.0 0.00 0.00 0.00 76 1014.5
20260906075333 78 96 0.0 0.0 0.00 0.00 0.00 75 1014.5
20260906074829 78 96 0.0 0.0 0.00 0.00 0.00 75 1014.7
20260906074328 78 96 0.0 0.0 0.00 0.00 0.00 75 1014.5
20260906073827 78 96 0.0 0.0 0.00 0.00 0.00 75 1014.8
20260906073322 78 96 0.0 0.0 0.00 0.00 0.00 74 1014.6
20260906072819 78 96 0.0 0.0 0.00 0.00 0.00 74 1014.6
20260906072314 78 96 0.0 0.0 0.00 0.00 0.00 74 1014.8
20260906071810 79 96 0.0 0.0 0.00 0.00 0.00 74 1014.6
20260906071304 79 96 0.0 0.0 0.00 0.00 0.00 73 1014.7
20260906070800 79 96 0.0 0.0 0.00 0.00 0.00 72 1014.5
20260906070256 80 96 0.0 0.0 0.00 0.00 0.00 72 1014.7
20260906065750 80 96 0.0 0.0 0.00 0.00 0.00 72 1014.7
20260906065246 79 96 0.0 0.0 0.00 0.00 0.00 72 1014.9
20260906064741 79 96 0.0 0.0 0.00 0.00 0.00 73 1014.8
20260906064237 79 96 0.0 0.0 0.00 0.00 0.00 73 1014.7
20260906063732 79 96 0.0 0.0 0.00 0.00 0.00 73 1015.1
20260906063227 80 96 0.0 0.0 0.00 0.00 0.00 72 1014.8
20260906062722 80 96 0.0 0.0 0.00 0.00 0.00 71 1014.8
20260906062221 80 96 0.0 0.0 0.00 0.00 0.00 71 1014.9
20260906061718 80 77 0.0 0.0 0.00 0.00 0.00 71 1015.1
20260906061214 81 77 0.0 0.0 0.00 0.00 0.00 70 1015.1
20260906060709 81 83 0.0 0.0 0.00 0.00 0.00 70 1015.1
20260906060207 80 90 0.0 0.0 0.00 0.00 0.00 70 1014.9
20260906055702 81 90 0.0 0.0 0.00 0.00 0.00 70 1014.9
20260906055156 81 90 0.0 0.0 0.00 0.00 0.00 70 1015.1
20260906054651 81 90 0.0 0.0 0.00 0.00 0.00 70 1015.2
20260906054146 81 90 0.0 0.0 0.00 0.00 0.00 70 1015.1
20260906053643 81 90 0.0 0.0 0.00 0.00 0.00 70 1015.3
20260906053138 81 90 0.0 0.0 0.00 0.00 0.00 71 1015.1
20260906052633 81 91 0.0 0.0 0.00 0.00 0.00 71 1015.3
20260906052130 81 90 0.0 0.0 0.00 0.00 0.00 70 1015.3
20260906051626 81 90 0.0 0.0 0.00 0.00 0.00 70 1015.4
20260906051126 81 91 0.0 0.0 0.00 0.00 0.00 71 1015.2
20260906050622 80 91 0.0 0.0 0.00 0.00 0.00 72 1015.1
20260906050117 80 90 0.0 0.0 0.00 0.00 0.00 73 1015.1
20260906045615 80 90 0.0 0.0 0.00 0.00 0.00 73 1015.2
20260906045110 80 90 0.0 0.0 0.00 0.00 0.00 73 1014.9
20260906044606 80 90 0.0 0.0 0.00 0.00 0.00 73 1015.3
20260906044101 80 90 0.0 0.0 0.00 0.00 0.00 72 1015.1
20260906043557 81 90 0.0 0.0 0.00 0.00 0.00 72 1015.3
20260906043053 81 90 0.0 0.0 0.00 0.00 0.00 72 1015.2
20260906042551 81 90 0.0 0.0 0.00 0.00 0.00 72 1015.1
20260906042046 81 90 0.0 0.0 0.00 0.00 0.00 71 1014.9
20260906041543 82 90 0.0 0.0 0.00 0.00 0.00 71 1014.8
20260906041037 82 90 0.0 0.0 0.00 0.00 0.00 71 1015.1
20260906040532 82 90 0.0 0.0 0.00 0.00 0.00 70 1015.1
20260906040028 82 90 0.0 0.0 0.00 0.00 0.00 70 1014.7
20260906035523 82 90 0.0 0.0 0.00 0.00 0.00 71 1014.7
20260906035019 82 90 0.0 0.0 0.00 0.00 0.00 70 1014.9
20260906034519 82 90 0.0 0.0 0.00 0.00 0.00 71 1015.1
20260906034014 82 93 0.0 0.0 0.00 0.00 0.00 71 1014.6
20260906033508 82 91 0.0 0.0 0.00 0.00 0.00 71 1014.8
20260906033004 82 72 0.0 0.0 0.00 0.00 0.00 71 1014.6
20260906032500 82 72 0.0 0.0 0.00 0.00 0.00 71 1014.8
20260906031954 83 72 0.0 0.0 0.00 0.00 0.00 71 1014.7
20260906031450 83 72 0.0 0.0 0.00 0.00 0.00 70 1014.6
20260906030946 83 72 0.0 0.0 0.00 0.00 0.00 70 1014.6
20260906030440 82 72 0.0 0.0 0.00 0.00 0.00 70 1014.5
20260906025934 82 72 0.0 0.0 0.00 0.00 0.00 70 1014.4
20260906025428 83 72 0.0 0.0 0.00 0.00 0.00 70 1014.2
20260906024927 83 72 0.0 0.0 0.00 0.00 0.00 70 1014.1
20260906024427 83 72 0.0 0.0 0.00 0.00 0.00 70 1014.1
20260906023922 83 72 0.0 0.0 0.00 0.00 0.00 69 1014.2
20260906023419 83 72 0.0 0.0 0.00 0.00 0.00 68 1014.1
20260906022918 83 72 0.0 0.0 0.00 0.00 0.00 68 1014.0
20260906022414 83 72 0.0 0.0 0.00 0.00 0.00 68 1013.9
20260906021909 84 72 0.0 0.0 0.00 0.00 0.00 67 1013.5
20260906021408 84 72 0.0 0.0 0.00 0.00 0.00 66 1013.8
20260906020903 85 72 0.0 0.0 0.00 0.00 0.00 65 1013.8
20260906020357 85 71 0.0 0.0 0.00 0.00 0.00 65 1013.5
20260906015852 86 67 1.0 2.0 0.00 0.00 0.00 64 1013.7
20260906015351 86 80 0.0 0.0 0.00 0.00 0.00 64 1013.6
20260906014850 86 57 0.0 0.0 0.00 0.00 0.00 65 1013.8
20260906014345 86 57 0.0 0.0 0.00 0.00 0.00 65 1013.4
20260906013841 86 58 0.0 0.0 0.00 0.00 0.00 65 1013.3
20260906013337 86 56 0.0 0.0 0.00 0.00 0.00 64 1013.2
20260906012832 87 71 0.0 0.0 0.00 0.00 0.00 63 1013.2
20260906012327 87 72 0.0 0.0 0.00 0.00 0.00 63 1013.3
20260906011827 87 66 0.0 0.0 0.00 0.00 0.00 61 1013.3
20260906011322 88 78 1.0 1.0 0.00 0.00 0.00 61 1013.2
20260906010818 88 63 1.0 1.0 0.00 0.00 0.00 61 1013.5
20260906010314 89 338 1.0 2.0 0.00 0.00 0.00 60 1013.0
20260906005809 90 84 0.0 0.0 0.00 0.00 0.00 55 1013.3
20260906005308 89 84 0.0 0.0 0.00 0.00 0.00 54 1013.1
20260906004807 90 83 0.0 1.0 0.00 0.00 0.00 56 1013.1
20260906004307 91 84 0.0 0.0 0.00 0.00 0.00 54 1013.1
20260906003802 91 91 1.0 1.0 0.00 0.00 0.00 52 1012.9
20260906003257 91 92 0.0 1.0 0.00 0.00 0.00 52 1013.3
20260906002752 92 108 0.0 0.0 0.00 0.00 0.00 50 1013.3
20260906002247 93 108 0.0 0.0 0.00 0.00 0.00 51 1013.0
20260906001743 94 108 0.0 0.0 0.00 0.00 0.00 53 1013.2
20260906001237 94 108 0.0 0.0 0.00 0.00 0.00 47 1013.0
20260906000732 95 108 0.0 0.0 0.00 0.00 0.00 51 1013.3
20260906000234 97 108 0.0 0.0 0.00 0.00 0.00 47 1012.9
20260905235727 100 108 0.0 1.0 0.00 0.00 0.00 42 1013.0
20260905235227 101 108 0.0 0.0 0.00 0.00 0.00 40 1013.1
20260905234722 102 108 0.0 0.0 0.00 0.00 0.00 41 1013.1
20260905234218 102 108 0.0 0.0 0.00 0.00 0.00 38 1013.1
20260905233713 103 109 0.0 0.0 0.00 0.00 0.00 38 1012.8
20260905233212 101 108 0.0 0.0 0.00 0.00 0.00 38 1013.2
20260905232708 101 109 0.0 0.0 0.00 0.00 0.00 40 1013.0
20260905232203 100 151 0.0 0.0 0.00 0.00 0.00 39 1013.0
20260905231659 100 103 0.0 1.0 0.00 0.00 0.00 41 1013.0
20260905231154 101 135 3.0 3.0 0.00 0.00 0.00 39 1013.2
20260905230650 101 117 1.0 1.0 0.00 0.00 0.00 39 1013.0
20260905230148 101 101 2.0 2.0 0.00 0.00 0.00 39 1013.0
20260905225648 101 122 0.0 0.0 0.00 0.00 0.00 40 1012.9
20260905225143 99 89 2.0 2.0 0.00 0.00 0.00 40 1013.0
20260905224642 99 56 1.0 1.0 0.00 0.00 0.00 39 1013.1
20260905224136 99 90 0.0 1.0 0.00 0.00 0.00 41 1013.0
20260905223633 99 121 2.0 2.0 0.00 0.00 0.00 40 1013.2
20260905223130 98 123 0.0 1.0 0.00 0.00 0.00 43 1013.2
20260905222625 98 106 0.0 0.0 0.00 0.00 0.00 42 1013.0
20260905222120 99 19 1.0 1.0 0.00 0.00 0.00 39 1013.0
20260905221616 100 99 0.0 0.0 0.00 0.00 0.00 39 1013.3
20260905221112 100 74 1.0 1.0 0.00 0.00 0.00 39 1013.4
20260905220607 100 164 4.0 4.0 0.00 0.00 0.00 39 1013.4
20260905220103 100 117 0.0 0.0 0.00 0.00 0.00 39 1013.3
20260905215602 101 25 2.0 2.0 0.00 0.00 0.00 39 1013.5
20260905215058 100 168 2.0 3.0 0.00 0.00 0.00 38 1013.4
20260905214554 100 149 1.0 2.0 0.00 0.00 0.00 39 1013.3
20260905214049 100 84 1.0 2.0 0.00 0.00 0.00 39 1013.6
20260905213544 100 114 2.0 3.0 0.00 0.00 0.00 39 1013.4
20260905213040 101 117 2.0 3.0 0.00 0.00 0.00 38 1013.7
20260905212534 99 154 2.0 2.0 0.00 0.00 0.00 40 1013.7
20260905212034 100 74 4.0 4.0 0.00 0.00 0.00 39 1013.4
20260905211529 100 113 4.0 4.0 0.00 0.00 0.00 40 1013.7
20260905211025 100 75 2.0 3.0 0.00 0.00 0.00 40 1013.9
20260905210520 101 114 2.0 3.0 0.00 0.00 0.00 39 1013.6
20260905210020 100 157 1.0 1.0 0.00 0.00 0.00 39 1013.7
20260905205520 99 162 2.0 2.0 0.00 0.00 0.00 39 1013.9
20260905205019 99 172 0.0 0.0 0.00 0.00 0.00 41 1013.9
20260905204514 99 201 3.0 4.0 0.00 0.00 0.00 39 1014.0
20260905204009 99 177 6.0 7.0 0.00 0.00 0.00 40 1014.1
20260905203504 100 207 4.0 6.0 0.00 0.00 0.00 40 1014.3
20260905202959 99 141 3.0 3.0 0.00 0.00 0.00 40 1014.3
20260905202454 98 124 3.0 3.0 0.00 0.00 0.00 43 1014.4
20260905201950 100 168 4.0 6.0 0.00 0.00 0.00 41 1014.4
20260905201445 103 175 4.0 4.0 0.00 0.00 0.00 37 1014.5
20260905200944 101 224 2.0 3.0 0.00 0.00 0.00 39 1014.4
20260905200441 100 177 2.0 3.0 0.00 0.00 0.00 41 1014.4
20260905195939 100 31 2.0 2.0 0.00 0.00 0.00 40 1014.6
20260905195434 100 148 0.0 1.0 0.00 0.00 0.00 39 1014.6
20260905194930 99 212 2.0 2.0 0.00 0.00 0.00 40 1014.9
20260905194428 97 17 1.0 1.0 0.00 0.00 0.00 42 1014.7
20260905193923 99 111 5.0 6.0 0.00 0.00 0.00 41 1014.8
20260905193418 99 135 2.0 3.0 0.00 0.00 0.00 43 1014.8
20260905192913 100 90 9.0 9.0 0.00 0.00 0.00 40 1014.8
20260905192408 99 187 2.0 3.0 0.00 0.00 0.00 41 1014.9
20260905191903 99 208 8.0 9.0 0.00 0.00 0.00 42 1014.9
20260905191402 99 131 5.0 6.0 0.00 0.00 0.00 40 1014.9
20260905190901 99 248 4.0 4.0 0.00 0.00 0.00 41 1015.1
20260905190354 98 231 2.0 3.0 0.00 0.00 0.00 43 1015.1
20260905185853 99 206 8.0 8.0 0.00 0.00 0.00 43 1015.1
20260905185349 98 168 1.0 1.0 0.00 0.00 0.00 45 1015.2
20260905184848 100 126 5.0 6.0 0.00 0.00 0.00 41 1015.5
20260905184348 99 318 3.0 3.0 0.00 0.00 0.00 42 1015.4
20260905183846 98 87 1.0 1.0 0.00 0.00 0.00 43 1015.5
20260905183342 98 174 5.0 6.0 0.00 0.00 0.00 44 1015.6
20260905182841 98 175 4.0 4.0 0.00 0.00 0.00 43 1015.7
20260905182335 98 176 5.0 6.0 0.00 0.00 0.00 43 1015.6
20260905181831 96 110 7.0 8.0 0.00 0.00 0.00 44 1015.8
20260905181331 95 247 2.0 2.0 0.00 0.00 0.00 46 1015.9
20260905180830 96 199 1.0 2.0 0.00 0.00 0.00 46 1016.0
20260905180325 96 150 3.0 3.0 0.00 0.00 0.00 45 1016.0